TimeEST,TemperatureF,Dew PointF,Humidity,Sea Level PressureIn,VisibilityMPH,Wind Direction,Wind SpeedMPH,Gust SpeedMPH,PrecipitationIn,Events,Conditions,WindDirDegrees,DateUTC
12:54 AM,21.9,10.0,60,29.94,10.0,WNW,17.3,-,N/A,,Mostly Cloudy,290,2013-01-22 05:54:00
1:54 AM,21.0,1.0,42,29.96,10.0,WNW,18.4,27.6,N/A,,Clear,290,2013-01-22 06:54:00
2:54 AM,19.0,1.0,46,29.98,10.0,WNW,19.6,32.2,N/A,,Clear,290,2013-01-22 07:54:00
3:54 AM,18.0,-0.9,44,30.01,10.0,WNW,21.9,27.6,N/A,,Clear,290,2013-01-22 08:54:00
4:54 AM,17.1,-0.9,45,30.03,10.0,WNW,17.3,25.3,N/A,,Clear,290,2013-01-22 09:54:00
5:54 AM,16.0,-0.0,49,30.06,10.0,WNW,15.0,25.3,N/A,,Clear,290,2013-01-22 10:54:00
6:54 AM,16.0,-0.9,47,30.08,10.0,West,13.8,29.9,N/A,,Clear,280,2013-01-22 11:54:00
7:54 AM,16.0,-0.0,49,30.10,10.0,West,12.7,-,N/A,,Clear,270,2013-01-22 12:54:00
8:54 AM,17.1,-2.0,43,30.14,10.0,WNW,16.1,27.6,N/A,,Mostly Cloudy,290,2013-01-22 13:54:00
9:54 AM,17.1,-2.0,43,30.16,10.0,WNW,20.7,28.8,N/A,,Mostly Cloudy,290,2013-01-22 14:54:00
10:54 AM,17.1,-6.0,36,30.16,10.0,WNW,23.0,28.8,N/A,,Mostly Cloudy,300,2013-01-22 15:54:00
11:54 AM,19.0,-5.1,34,30.14,10.0,West,21.9,27.6,N/A,,Mostly Cloudy,270,2013-01-22 16:54:00
12:54 PM,19.0,-5.1,34,30.13,10.0,West,20.7,27.6,N/A,,Mostly Cloudy,280,2013-01-22 17:54:00
1:54 PM,19.0,-4.0,36,30.13,10.0,WNW,17.3,23.0,N/A,,Overcast,290,2013-01-22 18:54:00
2:54 PM,19.0,-5.1,34,30.14,10.0,WNW,17.3,25.3,N/A,,Scattered Clouds,290,2013-01-22 19:54:00
3:54 PM,19.0,-5.1,34,30.16,10.0,NW,20.7,25.3,N/A,,Mostly Cloudy,310,2013-01-22 20:54:00
4:54 PM,17.1,-5.1,37,30.19,10.0,WNW,12.7,-,N/A,,Partly Cloudy,300,2013-01-22 21:54:00
5:54 PM,16.0,-5.1,39,30.21,10.0,WNW,13.8,-,N/A,,Clear,300,2013-01-22 22:54:00
6:54 PM,15.1,-2.0,47,30.25,10.0,WNW,8.1,-,N/A,,Clear,290,2013-01-22 23:54:00
7:54 PM,15.1,-4.0,43,30.25,10.0,WNW,17.3,-,N/A,,Clear,290,2013-01-23 00:54:00
8:54 PM,14.0,-2.9,47,30.27,10.0,WNW,13.8,-,N/A,,Partly Cloudy,300,2013-01-23 01:54:00
9:54 PM,12.9,-2.0,51,30.28,10.0,WNW,13.8,-,N/A,,Clear,290,2013-01-23 02:54:00
10:54 PM,12.9,-4.0,47,30.28,10.0,WNW,10.4,-,N/A,,Clear,290,2013-01-23 03:54:00
11:54 PM,12.0,-2.9,51,30.27,10.0,West,6.9,-,N/A,,Clear,270,2013-01-23 04:54:00